CZ-4B DEB, 25733

Orbit data source: Space-Track

CZ-4B DEB, 25733 is space debris in SSO originally from a launch on Mon, 10 May 1999 UTC launched from the Taiyaun Space Center, China (TSC). Debris objects in space refer to the collection of defunct objects orbiting the Earth. Examples of debris include non-operational satellites, rocket bodies, and fragments generated from explosions, collisions, or faulty payload assembly.

Loading next visibility...
Identifier
25733, 1999-025D
Orbit
SSO
Country
Flag of CNCN / PRC
Related business
Manufacturer
Unknown
Mission
Spacecraft
Bus & Motor
Unknown
Mass
~50 kg wet, ~50 kg dry
Launch date (UTC)
1999-05-10 (27 years ago)
Launch vehicle
Unknown
Launch site
Taiyaun Space Center, China (TSC)
Object type
Payload
Rocket body
Debris
Shape & HBR
Cone, 1.4 m
Radar Cross Section
3.657 m², Large (>1 m²)

Expand to show TLE details & history
Last TLE update: 5 hours ago

TLE from 5 hours ago
0 CZ-4B DEB
1 25733U 99025D   26037.11800772  .00000578  00000-0  29866-3 0  9993
2 25733  98.7001  83.1860 0014512 192.5282 167.5535 14.18820044381438
Epoch: 2026-02-06T02:49Z
TLE epoch observation values (Epoch: 2026-02-06T02:49:55.867Z)
Latitude
-0°
Longitude
-95.55726°
Altitude
842.476 km
Speed
7.426 km/s
True Right ascension
05h 32m 44s
True Declination
0° 00' 00"
Sunlit
Object was in full shadow at epoch
Visualization orbit readout
Latitude
Unknown
Longitude
Unknown
Altitude
Unknown
Speed
Unknown
Apparent Right ascension
Unknown
Apparent Declination
Unknown
Sunlit
N/A
Visualization observer readout
Local Sidereal Time
10:10:58
Azimuth
Unknown
Elevation
Unknown
Doppler factor
Unknown
Orbital elements
Apogee altitude
836.961 km
Perigee altitude
816.05 km
Semi-major axis
7,204.643 km
Eccentricity
0.00145
Inclination
98.7001°
RAAN
83.186°
Arg. of periapsis
192.5282°
True anomaly
167.58928°
Mean anomaly
167.5535°
Eccentric anomaly
167.5714°
Mean motion
3.54915 °/min
Orbital period
101.43 mins
BSTAR
0.00029866
Loading maneuver chart data...
Computing Atmospheric mass density...

Documentation

Showing up to 5 results
|